Novato, CA

2:00 AM PST on December 07, 2019 (GMT -0800)
Gnoss

Weather History for KDVO - October, 2019

Change the Weather History Date:

Wednesday, October 9, 2019

  Actual Average (KAPC) Record (KAPC)
Temperature  
Mean Temperature 59 °F -  
Max Temperature 77 °F 79 °F 89 °F (2015)
Min Temperature 41 °F 50 °F 37 °F (2008)
Degree Days  
Heating Degree Days 6    
Growing Degree Days 9 (Base 50)    
Moisture  
Dew Point 36 °F    
Average Humidity 43    
Maximum Humidity 76    
Minimum Humidity 17    
Precipitation  
Precipitation 0.00 in - - ()
Sea Level Pressure  
Sea Level Pressure 29.88 in    
Wind  
Wind Speed 5 mph ()    
Max Wind Speed 13 mph    
Max Gust Speed 16 mph    
Visibility 10.0 miles    
Events      
Averages and records for this station are not official NWS values.
T = Trace of Precipitation, MM = Missing Value Source: Averaged Metar Reports

Daily Weather History Graph

Daily Weather History Graph

Search for Another Location

Airport or City:

Astronomy

Oct. 09, 2019 Rise Set
Actual Time 7:13 AM PDT 6:41 PM PDT
Civil Twilight 6:46 AM PDT 7:07 PM PDT
Nautical Twilight 6:16 AM PDT 7:38 PM PDT
Astronomical Twilight 5:45 AM PDT 8:08 PM PDT
Moon 5:11 PM PDT (10/9) 3:10 AM PDT (10/9)
Length of Visible Light 12h 20m
Length of Day
11h 28m
Waxing Gibbous, 85% of the Moon is Illuminated
Oct 9
Waxing Gibbous
Oct 13
Full
Oct 21
Last Quarter
Oct 27
New
Nov 4
First Quarter

Hourly Weather History & Observations

Time (PDT) Temp. Windchill Dew Point Humidity Pressure Visibility Wind Dir Wind Speed Gust Speed Precip Events Conditions
12:15 AM 60.8 °F - 44.6 °F 55% 29.83 in 10.0 mi South 8.1 mph - N/A   Clear
12:35 AM 60.8 °F - 42.8 °F 52% 29.83 in 10.0 mi ESE 5.8 mph - N/A   Clear
12:55 AM 59.0 °F - 42.8 °F 55% 29.84 in 10.0 mi East 5.8 mph - N/A   Clear
1:15 AM 59.0 °F - 42.8 °F 55% 29.83 in 10.0 mi SSW 10.4 mph - N/A   Clear
1:35 AM 59.0 °F - 42.8 °F 55% 29.83 in 10.0 mi SSW 11.5 mph - N/A   Clear
1:55 AM 59.0 °F - 41.0 °F 51% 29.83 in 10.0 mi SSW 11.5 mph - N/A   Clear
2:15 AM 59.0 °F - 41.0 °F 51% 29.83 in 10.0 mi South 11.5 mph - N/A   Clear
2:35 AM 57.2 °F - 41.0 °F 55% 29.84 in 10.0 mi ENE 5.8 mph - N/A   Clear
2:55 AM 55.4 °F - 42.8 °F 63% 29.84 in 10.0 mi East 5.8 mph - N/A   Clear
3:15 AM 53.6 °F - 42.8 °F 67% 29.85 in 10.0 mi East 5.8 mph - N/A   Clear
3:35 AM 53.6 °F - 41.0 °F 62% 29.85 in 10.0 mi Calm Calm - N/A   Clear
3:55 AM 51.8 °F - 41.0 °F 67% 29.85 in 10.0 mi SSW 4.6 mph - N/A   Clear
4:15 AM 51.8 °F - 39.2 °F 62% 29.85 in 10.0 mi Variable 4.6 mph - N/A   Clear
4:35 AM 50.0 °F - 41.0 °F 71% 29.86 in 10.0 mi NE 4.6 mph - N/A   Clear
4:55 AM 48.2 °F - 41.0 °F 76% 29.86 in 10.0 mi SSW 4.6 mph - N/A   Clear
5:15 AM 53.6 °F - 39.2 °F 58% 29.86 in 10.0 mi SW 5.8 mph - N/A   Clear
5:35 AM 50.0 °F - 39.2 °F 66% 29.87 in 10.0 mi Calm Calm - N/A   Clear
5:55 AM 50.0 °F - 39.2 °F 66% 29.87 in 10.0 mi Variable 3.5 mph - N/A   Clear
6:15 AM 51.8 °F - 39.2 °F 62% 29.88 in 10.0 mi SW 6.9 mph - N/A   Clear
6:35 AM 51.8 °F - 37.4 °F 58% 29.88 in 10.0 mi Variable 4.6 mph 11.5 mph N/A   Clear
6:55 AM 53.6 °F - 37.4 °F 54% 29.89 in 10.0 mi NW 8.1 mph - N/A   Clear
7:15 AM 53.6 °F - 35.6 °F 51% 29.89 in 10.0 mi NW 8.1 mph - N/A   Clear
7:35 AM 51.8 °F - 37.4 °F 58% 29.89 in 10.0 mi Variable 3.5 mph - N/A   Clear
7:55 AM 55.4 °F - 35.6 °F 47% 29.90 in 10.0 mi NNW 9.2 mph 15.0 mph N/A   Clear
8:15 AM 57.2 °F - 35.6 °F 44% 29.91 in 10.0 mi NNW 12.7 mph - N/A   Clear
8:35 AM 59.0 °F - 35.6 °F 42% 29.92 in 10.0 mi NNW 11.5 mph - N/A   Clear
8:55 AM 59.0 °F - 35.6 °F 42% 29.93 in 10.0 mi NW 11.5 mph - N/A   Clear
9:15 AM 60.8 °F - 35.6 °F 39% 29.93 in 10.0 mi NNW 10.4 mph - N/A   Clear
9:35 AM 62.6 °F - 35.6 °F 37% 29.93 in 10.0 mi NNW 6.9 mph 16.1 mph N/A   Clear
9:55 AM 64.4 °F - 35.6 °F 34% 29.94 in 10.0 mi NNW 8.1 mph - N/A   Clear
10:15 AM 64.4 °F - 35.6 °F 34% 29.94 in 10.0 mi NNW 11.5 mph - N/A   Clear
10:35 AM 66.2 °F - 35.6 °F 32% 29.93 in 10.0 mi North 8.1 mph - N/A   Clear
10:55 AM 68.0 °F - 33.8 °F 28% 29.93 in 10.0 mi North 6.9 mph - N/A   Clear
11:15 AM 68.0 °F - 33.8 °F 28% 29.93 in 10.0 mi Variable 4.6 mph - N/A   Clear
11:35 AM 69.8 °F - 33.8 °F 27% 29.92 in 10.0 mi Variable 4.6 mph - N/A   Clear
11:55 AM 71.6 °F - 32.0 °F 23% 29.92 in 10.0 mi WNW 4.6 mph - N/A   Clear
12:15 PM 73.4 °F - 32.0 °F 22% 29.91 in 10.0 mi Variable 4.6 mph - N/A   Clear
12:35 PM 73.4 °F - 30.2 °F 20% 29.91 in 10.0 mi Calm Calm - N/A   Clear
12:55 PM 73.4 °F - 30.2 °F 20% 29.90 in 10.0 mi Variable 5.8 mph - N/A   Clear
1:15 PM 73.4 °F - 30.2 °F 20% 29.90 in 10.0 mi NE 4.6 mph 11.5 mph N/A   Clear
1:35 PM 75.2 °F - 30.2 °F 19% 29.89 in 10.0 mi Calm Calm - N/A   Clear
1:55 PM 75.2 °F - 32.0 °F 21% 29.88 in 9.0 mi NE 6.9 mph - N/A   Clear
2:15 PM 75.2 °F - 30.2 °F 19% 29.87 in 10.0 mi Calm Calm - N/A   Clear
2:35 PM 77.0 °F - 28.4 °F 17% 29.86 in 10.0 mi Variable 5.8 mph - N/A   Clear
2:55 PM 77.0 °F - 30.2 °F 18% 29.86 in 10.0 mi SE 4.6 mph - N/A   Clear
3:15 PM 77.0 °F - 30.2 °F 18% 29.85 in 10.0 mi Variable 4.6 mph - N/A   Clear
3:35 PM 75.2 °F - 35.6 °F 24% 29.85 in 10.0 mi ESE 10.4 mph - N/A   Clear
3:55 PM 75.2 °F - 33.8 °F 22% 29.85 in 10.0 mi ESE 6.9 mph - N/A   Clear
4:15 PM 77.0 °F - 33.8 °F 21% 29.85 in 10.0 mi Variable 5.8 mph 11.5 mph N/A   Clear
4:30 PM 77.0 °F - 37.4 °F 24% 29.85 in 10.0 mi Calm Calm 12.7 mph N/A   Clear
4:55 PM 75.2 °F - 37.4 °F 25% 29.86 in 10.0 mi NNW 6.9 mph - N/A   Clear
5:15 PM 75.2 °F - 37.4 °F 25% 29.86 in 10.0 mi NW 4.6 mph - N/A   Clear
5:35 PM 75.2 °F - 37.4 °F 25% 29.86 in 10.0 mi Variable 4.6 mph - N/A   Clear
5:55 PM 71.6 °F - 39.2 °F 31% 29.87 in 10.0 mi Calm Calm - N/A   Clear
6:15 PM 66.2 °F - 37.4 °F 35% 29.87 in 10.0 mi Calm Calm - N/A   Clear
6:35 PM 62.6 °F - 37.4 °F 39% 29.88 in 10.0 mi East 4.6 mph - N/A   Clear
6:55 PM 60.8 °F - 37.4 °F 42% 29.88 in 10.0 mi NE 4.6 mph - N/A   Clear
7:15 PM 59.0 °F - 37.4 °F 45% 29.89 in 10.0 mi Calm Calm - N/A   Clear
7:35 PM 60.8 °F - 37.4 °F 42% 29.89 in 10.0 mi Calm Calm - N/A   Clear
7:55 PM 57.2 °F - 37.4 °F 48% 29.89 in 10.0 mi Calm Calm - N/A   Clear
8:15 PM 57.2 °F - 33.8 °F 41% 29.90 in 10.0 mi Calm Calm - N/A   Clear
8:35 PM 51.8 °F - 33.8 °F 50% 29.90 in 10.0 mi Calm Calm - N/A   Clear
8:55 PM 55.4 °F - 32.0 °F 41% 29.90 in 10.0 mi Calm Calm - N/A   Clear
9:15 PM 51.8 °F - 30.2 °F 44% 29.91 in 10.0 mi Calm Calm - N/A   Clear
9:35 PM 50.0 °F - 33.8 °F 54% 29.92 in 10.0 mi NW 3.5 mph - N/A   Clear
9:55 PM 50.0 °F - 35.6 °F 58% 29.92 in 10.0 mi SSW 4.6 mph - N/A   Clear
10:15 PM 48.2 °F - 33.8 °F 58% 29.92 in 10.0 mi SW 4.6 mph - N/A   Clear
10:35 PM 48.2 °F - 33.8 °F 58% 29.93 in 10.0 mi Calm Calm - N/A   Clear
10:55 PM 41.0 °F 37.1 °F 30.2 °F 65% 29.93 in 10.0 mi NE 5.8 mph - N/A   Clear
11:15 PM 48.2 °F - 33.8 °F 58% 29.93 in 10.0 mi Calm Calm - N/A   Clear
11:35 PM 46.4 °F - 32.0 °F 57% 29.93 in 10.0 mi Calm Calm - N/A   Clear
11:55 PM 51.8 °F - 33.8 °F 50% 29.94 in 10.0 mi Calm Calm - N/A   Clear